7 * 24
多渠道服务支持
STARLINK-34443 是 SpaceX 星链计划中的一颗低轨通信卫星,属于星链卫星群的众多组成部分之一。该卫星旨在为全球用户提供高速互联网服务,尤其关注网络覆盖不足的地区。它运行在约 550 公里的轨道高度,采用先进的推进系统和激光通信技术,以提高数据传输效率和系统稳定性。作为星链计划的一部分,STARLINK-34443 有助于构建一个全球性的卫星互联网网络,推动远程教育、医疗和通信的发展。
美国
(US)
| 数据来源 | 国际轨道数据 |
| 星历时间: | 2025-11-08T19:38:26+0800 1天前 查看轨道信息 |
| 半长轴: | 6950.175km |
| 偏心率: | 0.0002828 |
| 轨道倾角: | 70.000° |
| 近地点辐角 | 263.087° |
| 升交点赤经 | 140.042° |
| 平近点角 | 96.996° |
| 近地点: | 570.074km |
| 远地点: | 574.006km |
| 周期: | 96.107分钟 |
| 每日圈数: | 14.983359 |